Multibeam Report for VANC15MV


Ship Name: Melville
Chief Scientist: Nittrouer, Charles A.
University of Washington
Source Organization: University of California, Scripps Institution of Oceanography (UC/SIO)
Start Date: 2003-09-18
End Date: 2003-09-27


View ISO Metadata

Visit the full NCEI Bathymetry Viewer


Multibeam Bathymetry

Cruise Details

Project: Biogeochemical cycling and authigenic mineral form
Instrument: Simrad EM3000

Data Quality

Number of Files: 886
Number of Records: 1593191
BATHYMETRY DATA Quantity Percentage
Number of Beams 202335257 100%
Number of Good Beams 182170246 90.03%
Number of Zero Beams 20165011 9.97%
Number of Flagged Beams 0 0%
AMPLITUDE DATA Quantity Percentage
Number of Beams 202335257 100%
Number of Good Beams 182170246 90.03%
Number of Zero Beams 20165011 9.97%
Number of Flagged Beams 0 0%
SIDESCAN DATA Quantity Percentage
Number of Pixels 1631427584 100%
Number of Good Pixels 1161766107 71.21%
Number of Zero Pixels 0 0%
Number of Flagged Pixels 469661477 28.79%

Navigation Totals

Total Time: 90.2446 hours
Total Track Length: 1589.5455 km
Average Speed: 17.614 km/hr (9.5108 knots)

Cruise Bounds

Northern Extent: -8.122115
Southern Extent: -8.59001
Western Extent: 144.20988
Eastern Extent: 144.81406

Limits

Minimum Sonar Depth 0.02 Maximum Sonar Depth 655.34
Minimum Altitude -609.73 Maximum Altitude 92.43
Minimum Depth 3.05 Maximum Depth 706.05
Minimum Amplitude -64 Maximum Amplitude 3
Minimum Sidescan -64 Maximum Sidescan -6

File Information

Full Resolution Bathymetry as collected (raw): 442

Files File Size Description
20070727131457001_0001_20030919_193002.mb56.gz 4.69MB Simrad multibeam vendor format
20070727131457002_0001_20030920_052452.mb56.gz 16.34MB Simrad multibeam vendor format
20070727131458003_0001_20030921_010538.mb56.gz 16.41MB Simrad multibeam vendor format
20070727131459004_0001_20030921_091326.mb56.gz 6.92MB Simrad multibeam vendor format
20070727131500005_0001_20030921_092810.mb56.gz 16.86MB Simrad multibeam vendor format
20070727131503006_0001_20030921_220638.mb56.gz 15.50MB Simrad multibeam vendor format
20070727131507007_0001_20030922_093324.mb56.gz 3.23MB Simrad multibeam vendor format
20070727131508008_0001_20030923_085346.mb56.gz 16.32MB Simrad multibeam vendor format
20070727131510009_0001_20030923_113431.mb56.gz 17.40MB Simrad multibeam vendor format
20070727131513010_0001_20030924_114207.mb56.gz 7.87MB Simrad multibeam vendor format
20070727131514011_0001_20030925_084413.mb56.gz 5.47MB Simrad multibeam vendor format
20070727131515012_0002_20030919_193845.mb56.gz 14.49MB Simrad multibeam vendor format
20070727131515013_0002_20030920_053952.mb56.gz 3.09MB Simrad multibeam vendor format
20070727131516014_0002_20030921_012039.mb56.gz 17.54MB Simrad multibeam vendor format
20070727131517015_0002_20030921_094310.mb56.gz 16.55MB Simrad multibeam vendor format
20070727131518016_0002_20030921_222139.mb56.gz 15.19MB Simrad multibeam vendor format
20070727131519017_0002_20030922_093534.mb56.gz 0.69MB Simrad multibeam vendor format
20070727131519018_0002_20030923_090846.mb56.gz 15.46MB Simrad multibeam vendor format
20070727131522019_0002_20030923_114931.mb56.gz 17.06MB Simrad multibeam vendor format
20070727131523020_0002_20030924_114935.mb56.gz 15.79MB Simrad multibeam vendor format
20070727131524021_0002_20030925_084905.mb56.gz 5.29MB Simrad multibeam vendor format
20070727131524022_0003_20030919_195345.mb56.gz 13.29MB Simrad multibeam vendor format
20070727131525023_0003_20030921_013539.mb56.gz 17.67MB Simrad multibeam vendor format
20070727131528024_0003_20030921_095811.mb56.gz 16.53MB Simrad multibeam vendor format
20070727131529025_0003_20030922_093602.mb56.gz 0.85MB Simrad multibeam vendor format
20070727131529026_0003_20030923_092347.mb56.gz 15.91MB Simrad multibeam vendor format
20070727131530027_0003_20030923_120432.mb56.gz 17.25MB Simrad multibeam vendor format
20070727131533028_0003_20030924_120436.mb56.gz 15.65MB Simrad multibeam vendor format
20070727131534029_0003_20030925_085351.mb56.gz 16.43MB Simrad multibeam vendor format
20070727131535030_0004_20030919_200845.mb56.gz 13.81MB Simrad multibeam vendor format
20070727131536031_0004_20030920_064103.mb56.gz 15.57MB Simrad multibeam vendor format
20070727131538032_0004_20030921_015040.mb56.gz 17.87MB Simrad multibeam vendor format
20070727131539033_0004_20030921_101312.mb56.gz 16.76MB Simrad multibeam vendor format
20070727131540034_0004_20030922_093635.mb56.gz 1.29MB Simrad multibeam vendor format
20070727131540035_0004_20030923_093848.mb56.gz 15.71MB Simrad multibeam vendor format
20070727131543036_0004_20030923_121932.mb56.gz 8.00MB Simrad multibeam vendor format
20070727131543037_0004_20030924_121931.mb56.gz 9.33MB Simrad multibeam vendor format
20070727131544038_0004_20030925_090851.mb56.gz 15.22MB Simrad multibeam vendor format
20070727131544039_0005_20030919_202346.mb56.gz 15.45MB Simrad multibeam vendor format
20070727131546040_0005_20030920_065603.mb56.gz 15.57MB Simrad multibeam vendor format
20070727131548041_0005_20030921_020540.mb56.gz 9.36MB Simrad multibeam vendor format
20070727131548042_0005_20030921_102813.mb56.gz 16.74MB Simrad multibeam vendor format
20070727131549043_0005_20030922_093726.mb56.gz 1.59MB Simrad multibeam vendor format
20070727131550044_0005_20030923_095349.mb56.gz 15.58MB Simrad multibeam vendor format
20070727131551045_0005_20030923_122626.mb56.gz 17.44MB Simrad multibeam vendor format
20070727131553046_0005_20030924_122824.mb56.gz 15.61MB Simrad multibeam vendor format
20070727131555047_0005_20030925_092246.mb56.gz 369.8KB Simrad multibeam vendor format
20070727131555048_0006_20030919_203846.mb56.gz 14.37MB Simrad multibeam vendor format
20070727131555049_0006_20030920_071104.mb56.gz 15.51MB Simrad multibeam vendor format
20070727131558050_0006_20030921_030220.mb56.gz 18.20MB Simrad multibeam vendor format
20070727131559051_0006_20030921_104314.mb56.gz 16.42MB Simrad multibeam vendor format
20070727131559052_0006_20030922_093829.mb56.gz 5.27MB Simrad multibeam vendor format
20070727131600053_0006_20030923_100849.mb56.gz 15.35MB Simrad multibeam vendor format
20070727131602054_0006_20030923_124127.mb56.gz 16.59MB Simrad multibeam vendor format
20070727131603055_0006_20030924_124325.mb56.gz 15.54MB Simrad multibeam vendor format
20070727131604056_0006_20030925_092306.mb56.gz 9.17MB Simrad multibeam vendor format
20070727131604057_0007_20030919_205347.mb56.gz 14.15MB Simrad multibeam vendor format
20070727131607058_0007_20030920_072604.mb56.gz 15.40MB Simrad multibeam vendor format
20070727131608059_0007_20030921_031720.mb56.gz 21.77MB Simrad multibeam vendor format
20070727131610060_0007_20030921_105815.mb56.gz 16.22MB Simrad multibeam vendor format
20070727131611061_0007_20030922_094156.mb56.gz 2.81MB Simrad multibeam vendor format
20070727131612062_0007_20030923_102350.mb56.gz 15.82MB Simrad multibeam vendor format
20070727131614063_0007_20030923_125627.mb56.gz 16.33MB Simrad multibeam vendor format
20070727131615064_0007_20030924_125825.mb56.gz 241.5KB Simrad multibeam vendor format
20070727131615065_0007_20030925_093140.mb56.gz 16.21MB Simrad multibeam vendor format
20070727131616066_0008_20030919_210847.mb56.gz 15.52MB Simrad multibeam vendor format
20070727131618067_0008_20030920_074105.mb56.gz 15.25MB Simrad multibeam vendor format
20070727131619068_0008_20030921_033221.mb56.gz 379.7KB Simrad multibeam vendor format
20070727131619069_0008_20030921_111316.mb56.gz 16.30MB Simrad multibeam vendor format
20070727131620070_0008_20030922_094345.mb56.gz 0.86MB Simrad multibeam vendor format
20070727131620071_0008_20030923_103850.mb56.gz 16.45MB Simrad multibeam vendor format
20070727131623072_0008_20030923_131128.mb56.gz 16.67MB Simrad multibeam vendor format
20070727131624073_0008_20030924_125839.mb56.gz 15.44MB Simrad multibeam vendor format
20070727131624074_0008_20030925_094641.mb56.gz 16.38MB Simrad multibeam vendor format
20070727131627075_0009_20030919_212348.mb56.gz 10.32MB Simrad multibeam vendor format
20070727131628076_0009_20030920_075606.mb56.gz 15.22MB Simrad multibeam vendor format
20070727131628077_0009_20030921_112817.mb56.gz 16.42MB Simrad multibeam vendor format
20070727131631078_0009_20030922_094418.mb56.gz 20.07MB Simrad multibeam vendor format
20070727131634079_0009_20030923_105351.mb56.gz 16.85MB Simrad multibeam vendor format
20070727131635080_0009_20030923_132628.mb56.gz 16.94MB Simrad multibeam vendor format
20070727131637081_0009_20030924_131340.mb56.gz 15.61MB Simrad multibeam vendor format
20070727131639082_0009_20030925_100141.mb56.gz 16.65MB Simrad multibeam vendor format
20070727131640083_0010_20030919_213332.mb56.gz 16.26MB Simrad multibeam vendor format
20070727131643084_0010_20030920_081106.mb56.gz 0.55MB Simrad multibeam vendor format
20070727131643085_0010_20030921_114318.mb56.gz 16.46MB Simrad multibeam vendor format
20070727131644086_0010_20030922_095715.mb56.gz 2.09MB Simrad multibeam vendor format
20070727131645087_0010_20030923_110853.mb56.gz 4.78MB Simrad multibeam vendor format
20070727131646088_0010_20030923_134129.mb56.gz 17.19MB Simrad multibeam vendor format
20070727131648089_0010_20030924_132840.mb56.gz 15.61MB Simrad multibeam vendor format
20070727131649090_0010_20030925_101642.mb56.gz 16.51MB Simrad multibeam vendor format
20070727131651091_0011_20030919_214832.mb56.gz 15.59MB Simrad multibeam vendor format
20070727131654092_0011_20030920_081443.mb56.gz 15.69MB Simrad multibeam vendor format
20070727131655093_0011_20030921_115819.mb56.gz 16.60MB Simrad multibeam vendor format
20070727131656094_0011_20030922_095839.mb56.gz 0.77MB Simrad multibeam vendor format
20070727131657095_0011_20030923_135629.mb56.gz 17.14MB Simrad multibeam vendor format
20070727131659096_0011_20030924_134341.mb56.gz 15.76MB Simrad multibeam vendor format
20070727131659097_0011_20030925_103142.mb56.gz 16.24MB Simrad multibeam vendor format
20070727131700098_0012_20030919_220332.mb56.gz 14.28MB Simrad multibeam vendor format
20070727131703099_0012_20030920_082943.mb56.gz 15.65MB Simrad multibeam vendor format
20070727131703100_0012_20030921_121320.mb56.gz 16.51MB Simrad multibeam vendor format
20070727131704101_0012_20030922_095910.mb56.gz 21.20MB Simrad multibeam vendor format
20070727131705102_0012_20030923_141129.mb56.gz 3.90MB Simrad multibeam vendor format
20070727131707103_0012_20030924_135841.mb56.gz 15.75MB Simrad multibeam vendor format
20070727131708104_0012_20030925_104643.mb56.gz 16.24MB Simrad multibeam vendor format
20070727131709105_0013_20030919_221833.mb56.gz 3.21MB Simrad multibeam vendor format
20070727131709106_0013_20030920_084444.mb56.gz 15.54MB Simrad multibeam vendor format
20070727131711107_0013_20030921_122821.mb56.gz 16.78MB Simrad multibeam vendor format
20070727131713108_0013_20030922_101350.mb56.gz 8.21MB Simrad multibeam vendor format
20070727131715109_0013_20030923_141501.mb56.gz 11.54MB Simrad multibeam vendor format
20070727131715110_0013_20030924_141342.mb56.gz 3.94MB Simrad multibeam vendor format
20070727131716111_0013_20030925_110143.mb56.gz 16.42MB Simrad multibeam vendor format
20070727131718112_0014_20030919_222157.mb56.gz 6.82MB Simrad multibeam vendor format
20070727131719113_0014_20030920_085944.mb56.gz 15.46MB Simrad multibeam vendor format
20070727131720114_0014_20030921_124322.mb56.gz 16.86MB Simrad multibeam vendor format
20070727131721115_0014_20030922_101920.mb56.gz 22.67MB Simrad multibeam vendor format
20070727131723116_0014_20030923_142516.mb56.gz 17.12MB Simrad multibeam vendor format
20070727131727117_0014_20030924_141724.mb56.gz 10.81MB Simrad multibeam vendor format
20070727131728118_0014_20030925_111644.mb56.gz 16.72MB Simrad multibeam vendor format
20070727131729119_0015_20030919_223241.mb56.gz 14.32MB Simrad multibeam vendor format
20070727131730120_0015_20030920_091445.mb56.gz 15.48MB Simrad multibeam vendor format
20070727131731121_0015_20030921_125822.mb56.gz 16.78MB Simrad multibeam vendor format
20070727131734122_0015_20030922_103421.mb56.gz 23.73MB Simrad multibeam vendor format
20070727131737123_0015_20030923_144016.mb56.gz 17.35MB Simrad multibeam vendor format
20070727131739124_0015_20030924_142740.mb56.gz 15.51MB Simrad multibeam vendor format
20070727131740125_0015_20030925_113144.mb56.gz 16.56MB Simrad multibeam vendor format
20070727131743126_0016_20030919_224741.mb56.gz 15.21MB Simrad multibeam vendor format
20070727131744127_0016_20030920_092945.mb56.gz 15.51MB Simrad multibeam vendor format
20070727131745128_0016_20030921_131323.mb56.gz 16.54MB Simrad multibeam vendor format
20070727131748129_0016_20030922_104921.mb56.gz 23.06MB Simrad multibeam vendor format
20070727131750130_0016_20030923_145517.mb56.gz 17.29MB Simrad multibeam vendor format
20070727131753131_0016_20030924_144240.mb56.gz 15.52MB Simrad multibeam vendor format
20070727131754132_0016_20030925_114644.mb56.gz 16.31MB Simrad multibeam vendor format
20070727131755133_0017_20030919_230242.mb56.gz 15.91MB Simrad multibeam vendor format
20070727131758134_0017_20030920_094446.mb56.gz 10.55MB Simrad multibeam vendor format
20070727131759135_0017_20030921_132824.mb56.gz 16.59MB Simrad multibeam vendor format
20070727131800136_0017_20030922_110422.mb56.gz 21.13MB Simrad multibeam vendor format
20070727131803137_0017_20030923_151017.mb56.gz 16.99MB Simrad multibeam vendor format
20070727131804138_0017_20030924_145741.mb56.gz 1.15MB Simrad multibeam vendor format
20070727131805139_0017_20030925_120145.mb56.gz 16.28MB Simrad multibeam vendor format
20070727131807140_0018_20030919_231742.mb56.gz 17.31MB Simrad multibeam vendor format
20070727131809141_0018_20030920_095716.mb56.gz 15.59MB Simrad multibeam vendor format
20070727131810142_0018_20030921_134324.mb56.gz 16.77MB Simrad multibeam vendor format
20070727131813143_0018_20030922_111922.mb56.gz 20.25MB Simrad multibeam vendor format
20070727131815144_0018_20030923_152518.mb56.gz 16.92MB Simrad multibeam vendor format
20070727131817145_0018_20030924_145847.mb56.gz 2.78MB Simrad multibeam vendor format
20070727131818146_0018_20030925_121645.mb56.gz 16.56MB Simrad multibeam vendor format
20070727131819147_0019_20030919_233242.mb56.gz 18.18MB Simrad multibeam vendor format
20070727131820148_0019_20030920_101217.mb56.gz 15.86MB Simrad multibeam vendor format
20070727131820149_0019_20030921_135825.mb56.gz 16.57MB Simrad multibeam vendor format
20070727131821150_0019_20030922_113423.mb56.gz 20.21MB Simrad multibeam vendor format
20070727131824151_0019_20030923_154018.mb56.gz 17.07MB Simrad multibeam vendor format
20070727131824152_0019_20030924_150124.mb56.gz 6.33MB Simrad multibeam vendor format
20070727131825153_0019_20030925_123146.mb56.gz 16.85MB Simrad multibeam vendor format
20070727131828154_0020_20030919_234743.mb56.gz 21.09MB Simrad multibeam vendor format
20070727131829155_0020_20030920_102717.mb56.gz 15.49MB Simrad multibeam vendor format
20070727131830156_0020_20030921_141326.mb56.gz 16.45MB Simrad multibeam vendor format
20070727131833157_0020_20030922_114923.mb56.gz 21.70MB Simrad multibeam vendor format
20070727131834158_0020_20030923_155519.mb56.gz 4.54MB Simrad multibeam vendor format
20070727131834159_0020_20030924_150728.mb56.gz 15.79MB Simrad multibeam vendor format
20070727131835160_0020_20030925_124646.mb56.gz 16.75MB Simrad multibeam vendor format
20070727131836161_0021_20030920_000243.mb56.gz 0.94MB Simrad multibeam vendor format
20070727131837162_0021_20030920_104218.mb56.gz 15.57MB Simrad multibeam vendor format
20070727131839163_0021_20030921_142827.mb56.gz 16.24MB Simrad multibeam vendor format
20070727131839164_0021_20030922_120424.mb56.gz 21.52MB Simrad multibeam vendor format
20070727131840165_0021_20030923_155921.mb56.gz 11.02MB Simrad multibeam vendor format
20070727131841166_0021_20030924_152229.mb56.gz 14.65MB Simrad multibeam vendor format
20070727131843167_0021_20030925_130147.mb56.gz 16.46MB Simrad multibeam vendor format
20070727131844168_0022_20030920_000323.mb56.gz 2.42MB Simrad multibeam vendor format
20070727131844169_0022_20030920_105718.mb56.gz 15.41MB Simrad multibeam vendor format
20070727131845170_0022_20030921_144328.mb56.gz 16.43MB Simrad multibeam vendor format
20070727131848171_0022_20030922_121924.mb56.gz 20.32MB Simrad multibeam vendor format
20070727131849172_0022_20030923_160903.mb56.gz 17.04MB Simrad multibeam vendor format
20070727131850173_0022_20030924_153623.mb56.gz 10.90MB Simrad multibeam vendor format
20070727131853174_0022_20030925_131647.mb56.gz 16.54MB Simrad multibeam vendor format
20070727131854175_0023_20030920_000504.mb56.gz 20.92MB Simrad multibeam vendor format
20070727131855176_0023_20030920_111219.mb56.gz 15.30MB Simrad multibeam vendor format
20070727131857177_0023_20030921_145830.mb56.gz 5.70MB Simrad multibeam vendor format
20070727131858178_0023_20030922_123425.mb56.gz 20.37MB Simrad multibeam vendor format
20070727131859179_0023_20030923_162403.mb56.gz 17.25MB Simrad multibeam vendor format
20070727131900180_0023_20030924_154634.mb56.gz 16.03MB Simrad multibeam vendor format
20070727131901181_0023_20030925_133148.mb56.gz 16.83MB Simrad multibeam vendor format
20070727131903182_0024_20030920_002004.mb56.gz 9.34MB Simrad multibeam vendor format
20070727131904183_0024_20030920_112719.mb56.gz 8.22MB Simrad multibeam vendor format
20070727131904184_0024_20030921_150342.mb56.gz 11.14MB Simrad multibeam vendor format
20070727131905185_0024_20030922_124925.mb56.gz 21.39MB Simrad multibeam vendor format
20070727131908186_0024_20030923_163904.mb56.gz 16.63MB Simrad multibeam vendor format
20070727131909187_0024_20030924_160134.mb56.gz 15.89MB Simrad multibeam vendor format
20070727131909188_0024_20030925_134648.mb56.gz 16.65MB Simrad multibeam vendor format
20070727131910189_0025_20030920_002814.mb56.gz 0.54MB Simrad multibeam vendor format
20070727131911190_0025_20030920_113639.mb56.gz 15.14MB Simrad multibeam vendor format
20070727131913191_0025_20030921_151347.mb56.gz 16.73MB Simrad multibeam vendor format
20070727131914192_0025_20030922_130426.mb56.gz 22.70MB Simrad multibeam vendor format
20070727131915193_0025_20030923_165404.mb56.gz 17.39MB Simrad multibeam vendor format
20070727131916194_0025_20030924_161635.mb56.gz 1.12MB Simrad multibeam vendor format
20070727131918195_0025_20030925_140121.mb56.gz 17.11MB Simrad multibeam vendor format
20070727131918196_0026_20030920_015500.mb56.gz 17.74MB Simrad multibeam vendor format
20070727131919197_0026_20030920_115140.mb56.gz 15.67MB Simrad multibeam vendor format
20070727131920198_0026_20030921_152848.mb56.gz 16.64MB Simrad multibeam vendor format
20070727131921199_0026_20030922_131926.mb56.gz 22.82MB Simrad multibeam vendor format
20070727131923200_0026_20030923_170905.mb56.gz 17.30MB Simrad multibeam vendor format
20070727131924201_0026_20030924_161739.mb56.gz 9.31MB Simrad multibeam vendor format
20070727131925202_0026_20030925_141621.mb56.gz 16.46MB Simrad multibeam vendor format
20070727131925203_0027_20030920_021000.mb56.gz 17.65MB Simrad multibeam vendor format
20070727131928204_0027_20030920_120640.mb56.gz 15.47MB Simrad multibeam vendor format
20070727131929205_0027_20030921_154348.mb56.gz 16.65MB Simrad multibeam vendor format
20070727131930206_0027_20030922_133427.mb56.gz 22.04MB Simrad multibeam vendor format
20070727131933207_0027_20030923_172405.mb56.gz 17.19MB Simrad multibeam vendor format
20070727131934208_0027_20030924_162628.mb56.gz 15.85MB Simrad multibeam vendor format
20070727131935209_0027_20030925_143100.mb56.gz 9.57MB Simrad multibeam vendor format
20070727131936210_0028_20030920_022501.mb56.gz 17.60MB Simrad multibeam vendor format
20070727131938211_0028_20030920_122141.mb56.gz 15.61MB Simrad multibeam vendor format
20070727131939212_0028_20030921_155849.mb56.gz 16.81MB Simrad multibeam vendor format
20070727131940213_0028_20030922_134927.mb56.gz 23.09MB Simrad multibeam vendor format
20070727131943214_0028_20030923_173906.mb56.gz 9.46MB Simrad multibeam vendor format
20070727131943215_0028_20030924_164128.mb56.gz 15.26MB Simrad multibeam vendor format
20070727131944216_0028_20030925_143939.mb56.gz 16.93MB Simrad multibeam vendor format
20070727131944217_0029_20030920_024001.mb56.gz 8.41MB Simrad multibeam vendor format
20070727131945218_0029_20030920_123641.mb56.gz 15.48MB Simrad multibeam vendor format
20070727131947219_0029_20030921_161350.mb56.gz 23.69MB Simrad multibeam vendor format
20070727131948220_0029_20030922_140428.mb56.gz 23.88MB Simrad multibeam vendor format
20070727131949221_0029_20030923_174735.mb56.gz 11.45MB Simrad multibeam vendor format
20070727131950222_0029_20030924_165554.mb56.gz 11.47MB Simrad multibeam vendor format
20070727131951223_0029_20030925_145440.mb56.gz 14.76MB Simrad multibeam vendor format
20070727131953224_0030_20030920_040126.mb56.gz 18.08MB Simrad multibeam vendor format
20070727131954225_0030_20030920_125142.mb56.gz 15.32MB Simrad multibeam vendor format
20070727131956226_0030_20030921_162852.mb56.gz 17.08MB Simrad multibeam vendor format
20070727131958227_0030_20030922_141928.mb56.gz 23.35MB Simrad multibeam vendor format
20070727132000228_0030_20030923_175728.mb56.gz 17.66MB Simrad multibeam vendor format
20070727132000229_0030_20030924_170629.mb56.gz 16.28MB Simrad multibeam vendor format
20070727132001230_0030_20030925_150733.mb56.gz 11.07MB Simrad multibeam vendor format
20070727132004231_0031_20030920_130643.mb56.gz 13.50MB Simrad multibeam vendor format
20070727132005232_0031_20030921_164353.mb56.gz 4.36MB Simrad multibeam vendor format
20070727132005233_0031_20030922_143429.mb56.gz 22.68MB Simrad multibeam vendor format
20070727132007234_0031_20030923_181229.mb56.gz 17.74MB Simrad multibeam vendor format
20070727132008235_0031_20030924_172129.mb56.gz 16.20MB Simrad multibeam vendor format
20070727132009236_0031_20030925_151707.mb56.gz 17.43MB Simrad multibeam vendor format
20070727132010237_0032_20030920_131945.mb56.gz 9.69MB Simrad multibeam vendor format
20070727132011238_0032_20030921_164749.mb56.gz 10.71MB Simrad multibeam vendor format
20070727132013239_0032_20030922_144929.mb56.gz 22.04MB Simrad multibeam vendor format
20070727132015240_0032_20030923_182729.mb56.gz 17.38MB Simrad multibeam vendor format
20070727132016241_0032_20030924_173630.mb56.gz 0.73MB Simrad multibeam vendor format
20070727132017242_0032_20030925_153207.mb56.gz 17.13MB Simrad multibeam vendor format
20070727132018243_0033_20030920_132908.mb56.gz 3.16MB Simrad multibeam vendor format
20070727132019244_0033_20030921_165728.mb56.gz 16.62MB Simrad multibeam vendor format
20070727132020245_0033_20030922_150430.mb56.gz 21.25MB Simrad multibeam vendor format
20070727132021246_0033_20030923_184230.mb56.gz 17.15MB Simrad multibeam vendor format
20070727132023247_0033_20030924_173710.mb56.gz 9.12MB Simrad multibeam vendor format
20070727132024248_0033_20030925_154707.mb56.gz 18.1KB Simrad multibeam vendor format
20070727132024249_0034_20030920_133213.mb56.gz 9.11MB Simrad multibeam vendor format
20070727132025250_0034_20030921_171229.mb56.gz 16.77MB Simrad multibeam vendor format
20070727132025251_0034_20030922_151930.mb56.gz 18.90MB Simrad multibeam vendor format
20070727132028252_0034_20030923_185730.mb56.gz 16.75MB Simrad multibeam vendor format
20070727132029253_0034_20030924_174543.mb56.gz 16.00MB Simrad multibeam vendor format
20070727132029254_0034_20030925_154708.mb56.gz 9.46MB Simrad multibeam vendor format
20070727132030255_0035_20030920_134100.mb56.gz 15.50MB Simrad multibeam vendor format
20070727132031256_0035_20030921_172731.mb56.gz 16.52MB Simrad multibeam vendor format
20070727132033257_0035_20030922_153225.mb56.gz 16.53MB Simrad multibeam vendor format
20070727132034258_0035_20030923_191231.mb56.gz 16.92MB Simrad multibeam vendor format
20070727132035259_0035_20030924_180044.mb56.gz 15.69MB Simrad multibeam vendor format
20070727132036260_0035_20030925_155534.mb56.gz 17.16MB Simrad multibeam vendor format
20070727132038261_0036_20030920_135601.mb56.gz 15.34MB Simrad multibeam vendor format
20070727132040262_0036_20030921_174232.mb56.gz 16.33MB Simrad multibeam vendor format
20070727132040263_0036_20030922_154254.mb56.gz 21.27MB Simrad multibeam vendor format
20070727132041264_0036_20030923_192731.mb56.gz 3.84MB Simrad multibeam vendor format
20070727132043265_0036_20030924_181525.mb56.gz 12.40MB Simrad multibeam vendor format
20070727132044266_0036_20030925_161035.mb56.gz 14.49MB Simrad multibeam vendor format
20070727132044267_0037_20030920_141101.mb56.gz 15.33MB Simrad multibeam vendor format
20070727132045268_0037_20030921_175733.mb56.gz 16.08MB Simrad multibeam vendor format
20070727132046269_0037_20030922_155755.mb56.gz 20.88MB Simrad multibeam vendor format
20070727132048270_0037_20030923_193055.mb56.gz 13.42MB Simrad multibeam vendor format
20070727132049271_0037_20030924_182700.mb56.gz 16.15MB Simrad multibeam vendor format
20070727132050272_0037_20030925_162303.mb56.gz 11.04MB Simrad multibeam vendor format
20070727132051273_0038_20030920_142602.mb56.gz 15.39MB Simrad multibeam vendor format
20070727132053274_0038_20030921_181234.mb56.gz 16.23MB Simrad multibeam vendor format
20070727132054275_0038_20030922_161255.mb56.gz 21.48MB Simrad multibeam vendor format
20070727132056276_0038_20030923_194236.mb56.gz 17.07MB Simrad multibeam vendor format
20070727132058277_0038_20030924_184200.mb56.gz 16.15MB Simrad multibeam vendor format
20070727132059278_0038_20030925_163231.mb56.gz 17.58MB Simrad multibeam vendor format
20070727132100279_0039_20030920_144102.mb56.gz 15.44MB Simrad multibeam vendor format
20070727132101280_0039_20030921_182734.mb56.gz 7.17MB Simrad multibeam vendor format
20070727132103281_0039_20030922_162756.mb56.gz 21.94MB Simrad multibeam vendor format
20070727132104282_0039_20030923_195737.mb56.gz 16.64MB Simrad multibeam vendor format
20070727132105283_0039_20030924_185658.mb56.gz 10.57MB Simrad multibeam vendor format
20070727132105284_0039_20030925_164732.mb56.gz 17.34MB Simrad multibeam vendor format
20070727132106285_0040_20030920_145603.mb56.gz 5.47MB Simrad multibeam vendor format
20070727132108286_0040_20030921_183411.mb56.gz 12.43MB Simrad multibeam vendor format
20070727132109287_0040_20030922_164256.mb56.gz 23.24MB Simrad multibeam vendor format
20070727132110288_0040_20030923_201237.mb56.gz 16.51MB Simrad multibeam vendor format
20070727132113289_0040_20030924_190655.mb56.gz 16.00MB Simrad multibeam vendor format
20070727132114290_0040_20030925_170232.mb56.gz 337.2KB Simrad multibeam vendor format
20070727132115291_0041_20030920_150129.mb56.gz 10.97MB Simrad multibeam vendor format
20070727132116292_0041_20030921_184533.mb56.gz 16.59MB Simrad multibeam vendor format
20070727132117293_0041_20030922_165757.mb56.gz 22.80MB Simrad multibeam vendor format
20070727132119294_0041_20030923_202738.mb56.gz 17.20MB Simrad multibeam vendor format
20070727132120295_0041_20030924_192156.mb56.gz 15.79MB Simrad multibeam vendor format
20070727132121296_0041_20030925_170249.mb56.gz 5.35MB Simrad multibeam vendor format
20070727132124297_0042_20030920_151200.mb56.gz 15.44MB Simrad multibeam vendor format
20070727132125298_0042_20030921_190033.mb56.gz 16.44MB Simrad multibeam vendor format
20070727132125299_0042_20030922_171257.mb56.gz 16.28MB Simrad multibeam vendor format
20070727132127300_0042_20030923_204238.mb56.gz 17.43MB Simrad multibeam vendor format
20070727132128301_0042_20030924_193643.mb56.gz 11.16MB Simrad multibeam vendor format
20070727132129302_0042_20030925_170742.mb56.gz 2.17MB Simrad multibeam vendor format
20070727132129303_0043_20030920_152700.mb56.gz 15.57MB Simrad multibeam vendor format
20070727132130304_0043_20030921_191534.mb56.gz 16.36MB Simrad multibeam vendor format
20070727132132305_0043_20030922_172405.mb56.gz 14.02MB Simrad multibeam vendor format
20070727132133306_0043_20030923_205739.mb56.gz 17.37MB Simrad multibeam vendor format
20070727132134307_0043_20030924_194702.mb56.gz 16.23MB Simrad multibeam vendor format
20070727132135308_0043_20030925_170935.mb56.gz 2.80MB Simrad multibeam vendor format
20070727132136309_0044_20030920_154201.mb56.gz 15.72MB Simrad multibeam vendor format
20070727132138310_0044_20030921_193035.mb56.gz 16.60MB Simrad multibeam vendor format
20070727132139311_0044_20030922_173308.mb56.gz 23.79MB Simrad multibeam vendor format
20070727132140312_0044_20030923_211239.mb56.gz 5.42MB Simrad multibeam vendor format
20070727132141313_0044_20030924_200202.mb56.gz 15.01MB Simrad multibeam vendor format
20070727132144314_0044_20030925_171200.mb56.gz 0.74MB Simrad multibeam vendor format
20070727132144315_0045_20030920_155702.mb56.gz 15.71MB Simrad multibeam vendor format
20070727132145316_0045_20030921_194535.mb56.gz 16.91MB Simrad multibeam vendor format
20070727132146317_0045_20030922_174809.mb56.gz 24.67MB Simrad multibeam vendor format
20070727132148318_0045_20030923_211719.mb56.gz 370.4KB Simrad multibeam vendor format
20070727132148319_0045_20030924_201554.mb56.gz 10.32MB Simrad multibeam vendor format
20070727132149320_0045_20030925_171238.mb56.gz 1.00MB Simrad multibeam vendor format
20070727132149321_0046_20030920_161202.mb56.gz 15.62MB Simrad multibeam vendor format
20070727132150322_0046_20030921_200036.mb56.gz 16.74MB Simrad multibeam vendor format
20070727132151323_0046_20030922_180309.mb56.gz 23.04MB Simrad multibeam vendor format
20070727132153324_0046_20030923_211738.mb56.gz 12.81MB Simrad multibeam vendor format
20070727132154325_0046_20030924_202536.mb56.gz 15.98MB Simrad multibeam vendor format
20070727132155326_0046_20030925_171328.mb56.gz 17.72MB Simrad multibeam vendor format
20070727132158327_0047_20030920_162703.mb56.gz 15.47MB Simrad multibeam vendor format
20070727132159328_0047_20030921_201536.mb56.gz 1.64MB Simrad multibeam vendor format
20070727132159329_0047_20030922_181810.mb56.gz 22.14MB Simrad multibeam vendor format
20070727132200330_0047_20030923_212841.mb56.gz 17.29MB Simrad multibeam vendor format
20070727132204331_0047_20030924_204037.mb56.gz 15.55MB Simrad multibeam vendor format
20070727132205332_0047_20030925_172829.mb56.gz 12.50MB Simrad multibeam vendor format
20070727132206333_0048_20030920_164203.mb56.gz 7.92MB Simrad multibeam vendor format
20070727132206334_0048_20030921_201706.mb56.gz 12.00MB Simrad multibeam vendor format
20070727132208335_0048_20030922_183310.mb56.gz 20.76MB Simrad multibeam vendor format
20070727132209336_0048_20030923_214341.mb56.gz 17.37MB Simrad multibeam vendor format
20070727132209337_0048_20030924_205512.mb56.gz 10.14MB Simrad multibeam vendor format
20070727132210338_0048_20030925_173856.mb56.gz 14.09MB Simrad multibeam vendor format
20070727132211339_0049_20030920_164936.mb56.gz 10.12MB Simrad multibeam vendor format
20070727132214340_0049_20030921_202809.mb56.gz 16.38MB Simrad multibeam vendor format
20070727132215341_0049_20030922_184811.mb56.gz 20.11MB Simrad multibeam vendor format
20070727132216342_0049_20030923_215842.mb56.gz 17.27MB Simrad multibeam vendor format
20070727132218343_0049_20030924_210429.mb56.gz 16.31MB Simrad multibeam vendor format
20070727132219344_0049_20030925_175037.mb56.gz 18.14MB Simrad multibeam vendor format
20070727132220345_0050_20030920_165920.mb56.gz 15.41MB Simrad multibeam vendor format
20070727132221346_0050_20030921_204309.mb56.gz 16.53MB Simrad multibeam vendor format
20070727132225347_0050_20030922_190311.mb56.gz 11.55MB Simrad multibeam vendor format
20070727132225348_0050_20030923_221342.mb56.gz 16.80MB Simrad multibeam vendor format
20070727132226349_0050_20030924_211929.mb56.gz 12.44MB Simrad multibeam vendor format
20070727132228350_0050_20030925_180537.mb56.gz 17.38MB Simrad multibeam vendor format
20070727132229351_0051_20030920_171420.mb56.gz 15.34MB Simrad multibeam vendor format
20070727132230352_0051_20030921_205810.mb56.gz 16.24MB Simrad multibeam vendor format
20070727132231353_0051_20030922_191122.mb56.gz 16.25MB Simrad multibeam vendor format
20070727132233354_0051_20030923_222843.mb56.gz 16.47MB Simrad multibeam vendor format
20070727132234355_0051_20030924_213102.mb56.gz 10.83MB Simrad multibeam vendor format
20070727132235356_0051_20030925_182010.mb56.gz 10.66MB Simrad multibeam vendor format
20070727132238357_0052_20030920_172921.mb56.gz 15.37MB Simrad multibeam vendor format
20070727132238358_0052_20030921_211310.mb56.gz 16.00MB Simrad multibeam vendor format
20070727132239359_0052_20030922_192202.mb56.gz 19.58MB Simrad multibeam vendor format
20070727132240360_0052_20030923_224343.mb56.gz 16.83MB Simrad multibeam vendor format
20070727132243361_0052_20030924_214114.mb56.gz 15.94MB Simrad multibeam vendor format
20070727132245362_0052_20030925_182917.mb56.gz 17.75MB Simrad multibeam vendor format
20070727132246363_0053_20030920_174422.mb56.gz 3.04MB Simrad multibeam vendor format
20070727132246364_0053_20030921_212811.mb56.gz 15.88MB Simrad multibeam vendor format
20070727132248365_0053_20030922_193703.mb56.gz 19.29MB Simrad multibeam vendor format
20070727132249366_0053_20030923_225844.mb56.gz 499.8KB Simrad multibeam vendor format
20070727132249367_0053_20030924_215614.mb56.gz 12.50MB Simrad multibeam vendor format
20070727132250368_0053_20030925_184417.mb56.gz 15.99MB Simrad multibeam vendor format
20070727132253369_0054_20030920_174721.mb56.gz 15.39MB Simrad multibeam vendor format
20070727132254370_0054_20030921_214311.mb56.gz 16.01MB Simrad multibeam vendor format
20070727132254371_0054_20030922_195203.mb56.gz 19.26MB Simrad multibeam vendor format
20070727132256372_0054_20030923_225910.mb56.gz 1.18MB Simrad multibeam vendor format
20070727132256373_0054_20030924_220753.mb56.gz 2.36MB Simrad multibeam vendor format
20070727132258374_0054_20030925_185741.mb56.gz 12.65MB Simrad multibeam vendor format
20070727132258375_0055_20030920_180221.mb56.gz 11.03MB Simrad multibeam vendor format
20070727132259376_0055_20030921_215812.mb56.gz 76.5KB Simrad multibeam vendor format
20070727132300377_0055_20030922_200704.mb56.gz 20.48MB Simrad multibeam vendor format
20070727132301378_0055_20030923_230012.mb56.gz 9.16MB Simrad multibeam vendor format
20070727132301379_0055_20030924_221005.mb56.gz 15.85MB Simrad multibeam vendor format
20070727132303380_0055_20030925_190819.mb56.gz 18.06MB Simrad multibeam vendor format
20070727132304381_0056_20030920_181304.mb56.gz 15.41MB Simrad multibeam vendor format
20070727132305382_0056_20030921_215816.mb56.gz 7.00MB Simrad multibeam vendor format
20070727132306383_0056_20030922_202204.mb56.gz 20.78MB Simrad multibeam vendor format
20070727132308384_0056_20030923_230807.mb56.gz 16.91MB Simrad multibeam vendor format
20070727132309385_0056_20030924_222505.mb56.gz 3.62MB Simrad multibeam vendor format
20070727132309386_0056_20030925_192320.mb56.gz 16.51MB Simrad multibeam vendor format
20070727132310387_0057_20030920_182805.mb56.gz 2.89MB Simrad multibeam vendor format
20070727132311388_0057_20030922_203705.mb56.gz 19.53MB Simrad multibeam vendor format
20070727132313389_0057_20030923_232307.mb56.gz 16.72MB Simrad multibeam vendor format
20070727132314390_0057_20030925_193710.mb56.gz 10.93MB Simrad multibeam vendor format
20070727132314391_0058_20030920_183056.mb56.gz 10.14MB Simrad multibeam vendor format
20070727132315392_0058_20030922_205205.mb56.gz 6.02MB Simrad multibeam vendor format
20070727132315393_0058_20030923_233808.mb56.gz 16.59MB Simrad multibeam vendor format
20070727132317394_0058_20030925_194631.mb56.gz 17.71MB Simrad multibeam vendor format
20070727132319395_0059_20030920_184034.mb56.gz 15.51MB Simrad multibeam vendor format
20070727132320396_0059_20030922_205646.mb56.gz 1.14MB Simrad multibeam vendor format
20070727132321397_0059_20030923_235308.mb56.gz 17.05MB Simrad multibeam vendor format
20070727132322398_0059_20030925_200132.mb56.gz 16.78MB Simrad multibeam vendor format
20070727132324399_0060_20030920_185535.mb56.gz 15.60MB Simrad multibeam vendor format
20070727132325400_0060_20030924_000809.mb56.gz 17.32MB Simrad multibeam vendor format
20070727132326401_0060_20030925_201535.mb56.gz 12.19MB Simrad multibeam vendor format
20070727132329402_0061_20030920_191035.mb56.gz 15.64MB Simrad multibeam vendor format
20070727132329403_0061_20030924_002309.mb56.gz 16.50MB Simrad multibeam vendor format
20070727132330404_0061_20030925_202550.mb56.gz 17.92MB Simrad multibeam vendor format
20070727132332405_0062_20030920_192536.mb56.gz 15.58MB Simrad multibeam vendor format
20070727132333406_0062_20030924_003728.mb56.gz 2.71MB Simrad multibeam vendor format
20070727132334407_0062_20030925_204050.mb56.gz 15.71MB Simrad multibeam vendor format
20070727132334408_0063_20030920_194036.mb56.gz 15.58MB Simrad multibeam vendor format
20070727132336409_0063_20030925_205402.mb56.gz 10.60MB Simrad multibeam vendor format
20070727132338410_0064_20030920_195537.mb56.gz 15.65MB Simrad multibeam vendor format
20070727132338411_0064_20030925_210313.mb56.gz 17.63MB Simrad multibeam vendor format
20070727132339412_0065_20030920_201037.mb56.gz 8.88MB Simrad multibeam vendor format
20070727132340413_0065_20030925_211813.mb56.gz 17.91MB Simrad multibeam vendor format
20070727132341414_0066_20030920_201945.mb56.gz 0.90MB Simrad multibeam vendor format
20070727132342415_0066_20030925_213314.mb56.gz 6.28MB Simrad multibeam vendor format
20070727132343416_0067_20030920_202036.mb56.gz 7.01MB Simrad multibeam vendor format
20070727132344417_0067_20030925_213831.mb56.gz 11.71MB Simrad multibeam vendor format
20070727132345418_0068_20030920_202724.mb56.gz 15.32MB Simrad multibeam vendor format
20070727132346419_0068_20030925_214820.mb56.gz 17.79MB Simrad multibeam vendor format
20070727132349420_0069_20030920_204225.mb56.gz 15.42MB Simrad multibeam vendor format
20070727132350421_0069_20030925_220320.mb56.gz 17.68MB Simrad multibeam vendor format
20070727132350422_0070_20030920_205725.mb56.gz 15.27MB Simrad multibeam vendor format
20070727132352423_0070_20030925_221821.mb56.gz 28.0KB Simrad multibeam vendor format
20070727132353424_0071_20030920_211226.mb56.gz 15.26MB Simrad multibeam vendor format
20070727132353425_0072_20030920_212726.mb56.gz 15.18MB Simrad multibeam vendor format
20070727132354426_0073_20030920_214226.mb56.gz 9.44MB Simrad multibeam vendor format
20070727132355427_0074_20030920_215142.mb56.gz 8.10MB Simrad multibeam vendor format
20070727132356428_0075_20030920_215934.mb56.gz 15.57MB Simrad multibeam vendor format
20070727132358429_0076_20030920_221435.mb56.gz 15.50MB Simrad multibeam vendor format
20070727132358430_0077_20030920_222935.mb56.gz 15.69MB Simrad multibeam vendor format
20070727132400431_0078_20030920_224436.mb56.gz 15.53MB Simrad multibeam vendor format
20070727132401432_0079_20030920_225936.mb56.gz 15.41MB Simrad multibeam vendor format
20070727132404433_0080_20030920_231437.mb56.gz 15.42MB Simrad multibeam vendor format
20070727132405434_0081_20030920_232937.mb56.gz 0.88MB Simrad multibeam vendor format
20070727132405435_0082_20030920_233029.mb56.gz 9.15MB Simrad multibeam vendor format
20070727132406436_0083_20030920_233923.mb56.gz 15.21MB Simrad multibeam vendor format
20070727132408437_0084_20030920_235424.mb56.gz 15.22MB Simrad multibeam vendor format
20070727132409438_0085_20030921_000924.mb56.gz 0.65MB Simrad multibeam vendor format
20070727132409439_0086_20030921_001002.mb56.gz 15.30MB Simrad multibeam vendor format
20070727132410440_0087_20030921_002503.mb56.gz 15.29MB Simrad multibeam vendor format
20070727132410441_0088_20030921_004003.mb56.gz 15.35MB Simrad multibeam vendor format
20070727132413442_0089_20030921_005504.mb56.gz 8.38MB Simrad multibeam vendor format

Metadata Files: 444

Files File Size Description
VANC15MV_Multibeam.xml NGDC created ISO metadata
20070727131457001_0001_20030919_193002.mb56.mif 10.3KB Metadata I?? File for each individual data file
20070727131457002_0001_20030920_052452.mb56.mif 10.3KB Metadata I?? File for each individual data file
20070727131458003_0001_20030921_010538.mb56.mif 10.3KB Metadata I?? File for each individual data file
20070727131459004_0001_20030921_091326.mb56.mif 10.3KB Metadata I?? File for each individual data file
20070727131500005_0001_20030921_092810.mb56.mif 10.3KB Metadata I?? File for each individual data file
20070727131503006_0001_20030921_220638.mb56.mif 10.3KB Metadata I?? File for each individual data file
20070727131507007_0001_20030922_093324.mb56.mif 10.3KB Metadata I?? File for each individual data file
20070727131508008_0001_20030923_085346.mb56.mif 10.3KB Metadata I?? File for each individual data file
20070727131510009_0001_20030923_113431.mb56.mif 10.3KB Metadata I?? File for each individual data file
20070727131513010_0001_20030924_114207.mb56.mif 10.3KB Metadata I?? File for each individual data file
20070727131514011_0001_20030925_084413.mb56.mif 10.3KB Metadata I?? File for each individual data file
20070727131515012_0002_20030919_193845.mb56.mif 10.3KB Metadata I?? File for each individual data file
20070727131515013_0002_20030920_053952.mb56.mif 10.3KB Metadata I?? File for each individual data file
20070727131516014_0002_20030921_012039.mb56.mif 10.3KB Metadata I?? File for each individual data file
20070727131517015_0002_20030921_094310.mb56.mif 10.3KB Metadata I?? File for each individual data file
20070727131518016_0002_20030921_222139.mb56.mif 10.3KB Metadata I?? File for each individual data file
20070727131519017_0002_20030922_093534.mb56.mif 10.3KB Metadata I?? File for each individual data file
20070727131519018_0002_20030923_090846.mb56.mif 10.3KB Metadata I?? File for each individual data file
20070727131522019_0002_20030923_114931.mb56.mif 10.3KB Metadata I?? File for each individual data file
20070727131523020_0002_20030924_114935.mb56.mif 10.3KB Metadata I?? File for each individual data file
20070727131524021_0002_20030925_084905.mb56.mif 10.3KB Metadata I?? File for each individual data file
20070727131524022_0003_20030919_195345.mb56.mif 10.3KB Metadata I?? File for each individual data file
20070727131525023_0003_20030921_013539.mb56.mif 10.3KB Metadata I?? File for each individual data file
20070727131528024_0003_20030921_095811.mb56.mif 10.3KB Metadata I?? File for each individual data file
20070727131529025_0003_20030922_093602.mb56.mif 10.3KB Metadata I?? File for each individual data file
20070727131529026_0003_20030923_092347.mb56.mif 10.3KB Metadata I?? File for each individual data file
20070727131530027_0003_20030923_120432.mb56.mif 10.3KB Metadata I?? File for each individual data file
20070727131533028_0003_20030924_120436.mb56.mif 10.3KB Metadata I?? File for each individual data file
20070727131534029_0003_20030925_085351.mb56.mif 10.3KB Metadata I?? File for each individual data file
20070727131535030_0004_20030919_200845.mb56.mif 10.3KB Metadata I?? File for each individual data file
20070727131536031_0004_20030920_064103.mb56.mif 10.3KB Metadata I?? File for each individual data file
20070727131538032_0004_20030921_015040.mb56.mif 10.3KB Metadata I?? File for each individual data file
20070727131539033_0004_20030921_101312.mb56.mif 10.3KB Metadata I?? File for each individual data file
20070727131540034_0004_20030922_093635.mb56.mif 10.3KB Metadata I?? File for each individual data file
20070727131540035_0004_20030923_093848.mb56.mif 10.3KB Metadata I?? File for each individual data file
20070727131543036_0004_20030923_121932.mb56.mif 10.3KB Metadata I?? File for each individual data file
20070727131543037_0004_20030924_121931.mb56.mif 10.3KB Metadata I?? File for each individual data file
20070727131544038_0004_20030925_090851.mb56.mif 10.3KB Metadata I?? File for each individual data file
20070727131544039_0005_20030919_202346.mb56.mif 10.3KB Metadata I?? File for each individual data file
20070727131546040_0005_20030920_065603.mb56.mif 10.3KB Metadata I?? File for each individual data file
20070727131548041_0005_20030921_020540.mb56.mif 10.3KB Metadata I?? File for each individual data file
20070727131548042_0005_20030921_102813.mb56.mif 10.3KB Metadata I?? File for each individual data file
20070727131549043_0005_20030922_093726.mb56.mif 10.3KB Metadata I?? File for each individual data file
20070727131550044_0005_20030923_095349.mb56.mif 10.3KB Metadata I?? File for each individual data file
20070727131551045_0005_20030923_122626.mb56.mif 10.3KB Metadata I?? File for each individual data file
20070727131553046_0005_20030924_122824.mb56.mif 10.3KB Metadata I?? File for each individual data file
20070727131555047_0005_20030925_092246.mb56.mif 10.3KB Metadata I?? File for each individual data file
20070727131555048_0006_20030919_203846.mb56.mif 10.3KB Metadata I?? File for each individual data file
20070727131555049_0006_20030920_071104.mb56.mif 10.3KB Metadata I?? File for each individual data file
20070727131558050_0006_20030921_030220.mb56.mif 10.3KB Metadata I?? File for each individual data file
20070727131559051_0006_20030921_104314.mb56.mif 10.3KB Metadata I?? File for each individual data file
20070727131559052_0006_20030922_093829.mb56.mif 10.3KB Metadata I?? File for each individual data file
20070727131600053_0006_20030923_100849.mb56.mif 10.3KB Metadata I?? File for each individual data file
20070727131602054_0006_20030923_124127.mb56.mif 10.3KB Metadata I?? File for each individual data file
20070727131603055_0006_20030924_124325.mb56.mif 10.3KB Metadata I?? File for each individual data file
20070727131604056_0006_20030925_092306.mb56.mif 10.3KB Metadata I?? File for each individual data file
20070727131604057_0007_20030919_205347.mb56.mif 10.3KB Metadata I?? File for each individual data file
20070727131607058_0007_20030920_072604.mb56.mif 10.3KB Metadata I?? File for each individual data file
20070727131608059_0007_20030921_031720.mb56.mif 10.3KB Metadata I?? File for each individual data file
20070727131610060_0007_20030921_105815.mb56.mif 10.3KB Metadata I?? File for each individual data file
20070727131611061_0007_20030922_094156.mb56.mif 10.3KB Metadata I?? File for each individual data file
20070727131612062_0007_20030923_102350.mb56.mif 10.3KB Metadata I?? File for each individual data file
20070727131614063_0007_20030923_125627.mb56.mif 10.3KB Metadata I?? File for each individual data file
20070727131615064_0007_20030924_125825.mb56.mif 10.3KB Metadata I?? File for each individual data file
20070727131615065_0007_20030925_093140.mb56.mif 10.3KB Metadata I?? File for each individual data file
20070727131616066_0008_20030919_210847.mb56.mif 10.3KB Metadata I?? File for each individual data file
20070727131618067_0008_20030920_074105.mb56.mif 10.3KB Metadata I?? File for each individual data file
20070727131619068_0008_20030921_033221.mb56.mif 10.3KB Metadata I?? File for each individual data file
20070727131619069_0008_20030921_111316.mb56.mif 10.3KB Metadata I?? File for each individual data file
20070727131620070_0008_20030922_094345.mb56.mif 10.3KB Metadata I?? File for each individual data file
20070727131620071_0008_20030923_103850.mb56.mif 10.3KB Metadata I?? File for each individual data file
20070727131623072_0008_20030923_131128.mb56.mif 10.3KB Metadata I?? File for each individual data file
20070727131624073_0008_20030924_125839.mb56.mif 10.3KB Metadata I?? File for each individual data file
20070727131624074_0008_20030925_094641.mb56.mif 10.3KB Metadata I?? File for each individual data file
20070727131627075_0009_20030919_212348.mb56.mif 10.3KB Metadata I?? File for each individual data file
20070727131628076_0009_20030920_075606.mb56.mif 10.3KB Metadata I?? File for each individual data file
20070727131628077_0009_20030921_112817.mb56.mif 10.3KB Metadata I?? File for each individual data file
20070727131631078_0009_20030922_094418.mb56.mif 10.3KB Metadata I?? File for each individual data file
20070727131634079_0009_20030923_105351.mb56.mif 10.3KB Metadata I?? File for each individual data file
20070727131635080_0009_20030923_132628.mb56.mif 10.3KB Metadata I?? File for each individual data file
20070727131637081_0009_20030924_131340.mb56.mif 10.3KB Metadata I?? File for each individual data file
20070727131639082_0009_20030925_100141.mb56.mif 10.3KB Metadata I?? File for each individual data file
20070727131640083_0010_20030919_213332.mb56.mif 10.3KB Metadata I?? File for each individual data file
20070727131643084_0010_20030920_081106.mb56.mif 10.3KB Metadata I?? File for each individual data file
20070727131643085_0010_20030921_114318.mb56.mif 10.3KB Metadata I?? File for each individual data file
20070727131644086_0010_20030922_095715.mb56.mif 10.3KB Metadata I?? File for each individual data file
20070727131645087_0010_20030923_110853.mb56.mif 10.3KB Metadata I?? File for each individual data file
20070727131646088_0010_20030923_134129.mb56.mif 10.3KB Metadata I?? File for each individual data file
20070727131648089_0010_20030924_132840.mb56.mif 10.3KB Metadata I?? File for each individual data file
20070727131649090_0010_20030925_101642.mb56.mif 10.3KB Metadata I?? File for each individual data file
20070727131651091_0011_20030919_214832.mb56.mif 10.3KB Metadata I?? File for each individual data file
20070727131654092_0011_20030920_081443.mb56.mif 10.3KB Metadata I?? File for each individual data file
20070727131655093_0011_20030921_115819.mb56.mif 10.3KB Metadata I?? File for each individual data file
20070727131656094_0011_20030922_095839.mb56.mif 10.3KB Metadata I?? File for each individual data file
20070727131657095_0011_20030923_135629.mb56.mif 10.3KB Metadata I?? File for each individual data file
20070727131659096_0011_20030924_134341.mb56.mif 10.3KB Metadata I?? File for each individual data file
20070727131659097_0011_20030925_103142.mb56.mif 10.3KB Metadata I?? File for each individual data file
20070727131700098_0012_20030919_220332.mb56.mif 10.3KB Metadata I?? File for each individual data file
20070727131703099_0012_20030920_082943.mb56.mif 10.3KB Metadata I?? File for each individual data file
20070727131703100_0012_20030921_121320.mb56.mif 10.3KB Metadata I?? File for each individual data file
20070727131704101_0012_20030922_095910.mb56.mif 10.3KB Metadata I?? File for each individual data file
20070727131705102_0012_20030923_141129.mb56.mif 10.3KB Metadata I?? File for each individual data file
20070727131707103_0012_20030924_135841.mb56.mif 10.3KB Metadata I?? File for each individual data file
20070727131708104_0012_20030925_104643.mb56.mif 10.3KB Metadata I?? File for each individual data file
20070727131709105_0013_20030919_221833.mb56.mif 10.3KB Metadata I?? File for each individual data file
20070727131709106_0013_20030920_084444.mb56.mif 10.3KB Metadata I?? File for each individual data file
20070727131711107_0013_20030921_122821.mb56.mif 10.3KB Metadata I?? File for each individual data file
20070727131713108_0013_20030922_101350.mb56.mif 10.3KB Metadata I?? File for each individual data file
20070727131715109_0013_20030923_141501.mb56.mif 10.3KB Metadata I?? File for each individual data file
20070727131715110_0013_20030924_141342.mb56.mif 10.3KB Metadata I?? File for each individual data file
20070727131716111_0013_20030925_110143.mb56.mif 10.3KB Metadata I?? File for each individual data file
20070727131718112_0014_20030919_222157.mb56.mif 10.3KB Metadata I?? File for each individual data file
20070727131719113_0014_20030920_085944.mb56.mif 10.3KB Metadata I?? File for each individual data file
20070727131720114_0014_20030921_124322.mb56.mif 10.3KB Metadata I?? File for each individual data file
20070727131721115_0014_20030922_101920.mb56.mif 10.3KB Metadata I?? File for each individual data file
20070727131723116_0014_20030923_142516.mb56.mif 10.3KB Metadata I?? File for each individual data file
20070727131727117_0014_20030924_141724.mb56.mif 10.3KB Metadata I?? File for each individual data file
20070727131728118_0014_20030925_111644.mb56.mif 10.3KB Metadata I?? File for each individual data file
20070727131729119_0015_20030919_223241.mb56.mif 10.3KB Metadata I?? File for each individual data file
20070727131730120_0015_20030920_091445.mb56.mif 10.3KB Metadata I?? File for each individual data file
20070727131731121_0015_20030921_125822.mb56.mif 10.3KB Metadata I?? File for each individual data file
20070727131734122_0015_20030922_103421.mb56.mif 10.3KB Metadata I?? File for each individual data file
20070727131737123_0015_20030923_144016.mb56.mif 10.3KB Metadata I?? File for each individual data file
20070727131739124_0015_20030924_142740.mb56.mif 10.3KB Metadata I?? File for each individual data file
20070727131740125_0015_20030925_113144.mb56.mif 10.3KB Metadata I?? File for each individual data file
20070727131743126_0016_20030919_224741.mb56.mif 10.3KB Metadata I?? File for each individual data file
20070727131744127_0016_20030920_092945.mb56.mif 10.3KB Metadata I?? File for each individual data file
20070727131745128_0016_20030921_131323.mb56.mif 10.3KB Metadata I?? File for each individual data file
20070727131748129_0016_20030922_104921.mb56.mif 10.3KB Metadata I?? File for each individual data file
20070727131750130_0016_20030923_145517.mb56.mif 10.3KB Metadata I?? File for each individual data file
20070727131753131_0016_20030924_144240.mb56.mif 10.3KB Metadata I?? File for each individual data file
20070727131754132_0016_20030925_114644.mb56.mif 10.3KB Metadata I?? File for each individual data file
20070727131755133_0017_20030919_230242.mb56.mif 10.3KB Metadata I?? File for each individual data file
20070727131758134_0017_20030920_094446.mb56.mif 10.3KB Metadata I?? File for each individual data file
20070727131759135_0017_20030921_132824.mb56.mif 10.3KB Metadata I?? File for each individual data file
20070727131800136_0017_20030922_110422.mb56.mif 10.3KB Metadata I?? File for each individual data file
20070727131803137_0017_20030923_151017.mb56.mif 10.3KB Metadata I?? File for each individual data file
20070727131804138_0017_20030924_145741.mb56.mif 10.3KB Metadata I?? File for each individual data file
20070727131805139_0017_20030925_120145.mb56.mif 10.3KB Metadata I?? File for each individual data file
20070727131807140_0018_20030919_231742.mb56.mif 10.3KB Metadata I?? File for each individual data file
20070727131809141_0018_20030920_095716.mb56.mif 10.3KB Metadata I?? File for each individual data file
20070727131810142_0018_20030921_134324.mb56.mif 10.3KB Metadata I?? File for each individual data file
20070727131813143_0018_20030922_111922.mb56.mif 10.3KB Metadata I?? File for each individual data file
20070727131815144_0018_20030923_152518.mb56.mif 10.3KB Metadata I?? File for each individual data file
20070727131817145_0018_20030924_145847.mb56.mif 10.3KB Metadata I?? File for each individual data file
20070727131818146_0018_20030925_121645.mb56.mif 10.3KB Metadata I?? File for each individual data file
20070727131819147_0019_20030919_233242.mb56.mif 10.3KB Metadata I?? File for each individual data file
20070727131820148_0019_20030920_101217.mb56.mif 10.3KB Metadata I?? File for each individual data file
20070727131820149_0019_20030921_135825.mb56.mif 10.3KB Metadata I?? File for each individual data file
20070727131821150_0019_20030922_113423.mb56.mif 10.3KB Metadata I?? File for each individual data file
20070727131824151_0019_20030923_154018.mb56.mif 10.3KB Metadata I?? File for each individual data file
20070727131824152_0019_20030924_150124.mb56.mif 10.3KB Metadata I?? File for each individual data file
20070727131825153_0019_20030925_123146.mb56.mif 10.3KB Metadata I?? File for each individual data file
20070727131828154_0020_20030919_234743.mb56.mif 10.3KB Metadata I?? File for each individual data file
20070727131829155_0020_20030920_102717.mb56.mif 10.3KB Metadata I?? File for each individual data file
20070727131830156_0020_20030921_141326.mb56.mif 10.3KB Metadata I?? File for each individual data file
20070727131833157_0020_20030922_114923.mb56.mif 10.3KB Metadata I?? File for each individual data file
20070727131834158_0020_20030923_155519.mb56.mif 10.3KB Metadata I?? File for each individual data file
20070727131834159_0020_20030924_150728.mb56.mif 10.3KB Metadata I?? File for each individual data file
20070727131835160_0020_20030925_124646.mb56.mif 10.3KB Metadata I?? File for each individual data file
20070727131836161_0021_20030920_000243.mb56.mif 10.3KB Metadata I?? File for each individual data file
20070727131837162_0021_20030920_104218.mb56.mif 10.3KB Metadata I?? File for each individual data file
20070727131839163_0021_20030921_142827.mb56.mif 10.3KB Metadata I?? File for each individual data file
20070727131839164_0021_20030922_120424.mb56.mif 10.3KB Metadata I?? File for each individual data file
20070727131840165_0021_20030923_155921.mb56.mif 10.3KB Metadata I?? File for each individual data file
20070727131841166_0021_20030924_152229.mb56.mif 10.3KB Metadata I?? File for each individual data file
20070727131843167_0021_20030925_130147.mb56.mif 10.3KB Metadata I?? File for each individual data file
20070727131844168_0022_20030920_000323.mb56.mif 10.3KB Metadata I?? File for each individual data file
20070727131844169_0022_20030920_105718.mb56.mif 10.3KB Metadata I?? File for each individual data file
20070727131845170_0022_20030921_144328.mb56.mif 10.3KB Metadata I?? File for each individual data file
20070727131848171_0022_20030922_121924.mb56.mif 10.3KB Metadata I?? File for each individual data file
20070727131849172_0022_20030923_160903.mb56.mif 10.3KB Metadata I?? File for each individual data file
20070727131850173_0022_20030924_153623.mb56.mif 10.3KB Metadata I?? File for each individual data file
20070727131853174_0022_20030925_131647.mb56.mif 10.3KB Metadata I?? File for each individual data file
20070727131854175_0023_20030920_000504.mb56.mif 10.3KB Metadata I?? File for each individual data file
20070727131855176_0023_20030920_111219.mb56.mif 10.3KB Metadata I?? File for each individual data file
20070727131857177_0023_20030921_145830.mb56.mif 10.3KB Metadata I?? File for each individual data file
20070727131858178_0023_20030922_123425.mb56.mif 10.3KB Metadata I?? File for each individual data file
20070727131859179_0023_20030923_162403.mb56.mif 10.3KB Metadata I?? File for each individual data file
20070727131900180_0023_20030924_154634.mb56.mif 10.3KB Metadata I?? File for each individual data file
20070727131901181_0023_20030925_133148.mb56.mif 10.3KB Metadata I?? File for each individual data file
20070727131903182_0024_20030920_002004.mb56.mif 10.3KB Metadata I?? File for each individual data file
20070727131904183_0024_20030920_112719.mb56.mif 10.3KB Metadata I?? File for each individual data file
20070727131904184_0024_20030921_150342.mb56.mif 10.3KB Metadata I?? File for each individual data file
20070727131905185_0024_20030922_124925.mb56.mif 10.3KB Metadata I?? File for each individual data file
20070727131908186_0024_20030923_163904.mb56.mif 10.3KB Metadata I?? File for each individual data file
20070727131909187_0024_20030924_160134.mb56.mif 10.3KB Metadata I?? File for each individual data file
20070727131909188_0024_20030925_134648.mb56.mif 10.3KB Metadata I?? File for each individual data file
20070727131910189_0025_20030920_002814.mb56.mif 10.3KB Metadata I?? File for each individual data file
20070727131911190_0025_20030920_113639.mb56.mif 10.3KB Metadata I?? File for each individual data file
20070727131913191_0025_20030921_151347.mb56.mif 10.3KB Metadata I?? File for each individual data file
20070727131914192_0025_20030922_130426.mb56.mif 10.3KB Metadata I?? File for each individual data file
20070727131915193_0025_20030923_165404.mb56.mif 10.3KB Metadata I?? File for each individual data file
20070727131916194_0025_20030924_161635.mb56.mif 10.3KB Metadata I?? File for each individual data file
20070727131918195_0025_20030925_140121.mb56.mif 10.3KB Metadata I?? File for each individual data file
20070727131918196_0026_20030920_015500.mb56.mif 10.3KB Metadata I?? File for each individual data file
20070727131919197_0026_20030920_115140.mb56.mif 10.3KB Metadata I?? File for each individual data file
20070727131920198_0026_20030921_152848.mb56.mif 10.3KB Metadata I?? File for each individual data file
20070727131921199_0026_20030922_131926.mb56.mif 10.3KB Metadata I?? File for each individual data file
20070727131923200_0026_20030923_170905.mb56.mif 10.3KB Metadata I?? File for each individual data file
20070727131924201_0026_20030924_161739.mb56.mif 10.3KB Metadata I?? File for each individual data file
20070727131925202_0026_20030925_141621.mb56.mif 10.3KB Metadata I?? File for each individual data file
20070727131925203_0027_20030920_021000.mb56.mif 10.3KB Metadata I?? File for each individual data file
20070727131928204_0027_20030920_120640.mb56.mif 10.3KB Metadata I?? File for each individual data file
20070727131929205_0027_20030921_154348.mb56.mif 10.3KB Metadata I?? File for each individual data file
20070727131930206_0027_20030922_133427.mb56.mif 10.3KB Metadata I?? File for each individual data file
20070727131933207_0027_20030923_172405.mb56.mif 10.3KB Metadata I?? File for each individual data file
20070727131934208_0027_20030924_162628.mb56.mif 10.3KB Metadata I?? File for each individual data file
20070727131935209_0027_20030925_143100.mb56.mif 10.3KB Metadata I?? File for each individual data file
20070727131936210_0028_20030920_022501.mb56.mif 10.3KB Metadata I?? File for each individual data file
20070727131938211_0028_20030920_122141.mb56.mif 10.3KB Metadata I?? File for each individual data file
20070727131939212_0028_20030921_155849.mb56.mif 10.3KB Metadata I?? File for each individual data file
20070727131940213_0028_20030922_134927.mb56.mif 10.3KB Metadata I?? File for each individual data file
20070727131943214_0028_20030923_173906.mb56.mif 10.3KB Metadata I?? File for each individual data file
20070727131943215_0028_20030924_164128.mb56.mif 10.3KB Metadata I?? File for each individual data file
20070727131944216_0028_20030925_143939.mb56.mif 10.3KB Metadata I?? File for each individual data file
20070727131944217_0029_20030920_024001.mb56.mif 10.3KB Metadata I?? File for each individual data file
20070727131945218_0029_20030920_123641.mb56.mif 10.3KB Metadata I?? File for each individual data file
20070727131947219_0029_20030921_161350.mb56.mif 10.3KB Metadata I?? File for each individual data file
20070727131948220_0029_20030922_140428.mb56.mif 10.3KB Metadata I?? File for each individual data file
20070727131949221_0029_20030923_174735.mb56.mif 10.3KB Metadata I?? File for each individual data file
20070727131950222_0029_20030924_165554.mb56.mif 10.3KB Metadata I?? File for each individual data file
20070727131951223_0029_20030925_145440.mb56.mif 10.3KB Metadata I?? File for each individual data file
20070727131953224_0030_20030920_040126.mb56.mif 10.3KB Metadata I?? File for each individual data file
20070727131954225_0030_20030920_125142.mb56.mif 10.3KB Metadata I?? File for each individual data file
20070727131956226_0030_20030921_162852.mb56.mif 10.3KB Metadata I?? File for each individual data file
20070727131958227_0030_20030922_141928.mb56.mif 10.3KB Metadata I?? File for each individual data file
20070727132000228_0030_20030923_175728.mb56.mif 10.3KB Metadata I?? File for each individual data file
20070727132000229_0030_20030924_170629.mb56.mif 10.3KB Metadata I?? File for each individual data file
20070727132001230_0030_20030925_150733.mb56.mif 10.3KB Metadata I?? File for each individual data file
20070727132004231_0031_20030920_130643.mb56.mif 10.3KB Metadata I?? File for each individual data file
20070727132005232_0031_20030921_164353.mb56.mif 10.3KB Metadata I?? File for each individual data file
20070727132005233_0031_20030922_143429.mb56.mif 10.3KB Metadata I?? File for each individual data file
20070727132007234_0031_20030923_181229.mb56.mif 10.3KB Metadata I?? File for each individual data file
20070727132008235_0031_20030924_172129.mb56.mif 10.3KB Metadata I?? File for each individual data file
20070727132009236_0031_20030925_151707.mb56.mif 10.3KB Metadata I?? File for each individual data file
20070727132010237_0032_20030920_131945.mb56.mif 10.3KB Metadata I?? File for each individual data file
20070727132011238_0032_20030921_164749.mb56.mif 10.3KB Metadata I?? File for each individual data file
20070727132013239_0032_20030922_144929.mb56.mif 10.3KB Metadata I?? File for each individual data file
20070727132015240_0032_20030923_182729.mb56.mif 10.3KB Metadata I?? File for each individual data file
20070727132016241_0032_20030924_173630.mb56.mif 10.3KB Metadata I?? File for each individual data file
20070727132017242_0032_20030925_153207.mb56.mif 10.3KB Metadata I?? File for each individual data file
20070727132018243_0033_20030920_132908.mb56.mif 10.3KB Metadata I?? File for each individual data file
20070727132019244_0033_20030921_165728.mb56.mif 10.3KB Metadata I?? File for each individual data file
20070727132020245_0033_20030922_150430.mb56.mif 10.3KB Metadata I?? File for each individual data file
20070727132021246_0033_20030923_184230.mb56.mif 10.3KB Metadata I?? File for each individual data file
20070727132023247_0033_20030924_173710.mb56.mif 10.3KB Metadata I?? File for each individual data file
20070727132024248_0033_20030925_154707.mb56.mif 10.3KB Metadata I?? File for each individual data file
20070727132024249_0034_20030920_133213.mb56.mif 10.3KB Metadata I?? File for each individual data file
20070727132025250_0034_20030921_171229.mb56.mif 10.3KB Metadata I?? File for each individual data file
20070727132025251_0034_20030922_151930.mb56.mif 10.3KB Metadata I?? File for each individual data file
20070727132028252_0034_20030923_185730.mb56.mif 10.3KB Metadata I?? File for each individual data file
20070727132029253_0034_20030924_174543.mb56.mif 10.3KB Metadata I?? File for each individual data file
20070727132029254_0034_20030925_154708.mb56.mif 10.3KB Metadata I?? File for each individual data file
20070727132030255_0035_20030920_134100.mb56.mif 10.3KB Metadata I?? File for each individual data file
20070727132031256_0035_20030921_172731.mb56.mif 10.3KB Metadata I?? File for each individual data file
20070727132033257_0035_20030922_153225.mb56.mif 10.3KB Metadata I?? File for each individual data file
20070727132034258_0035_20030923_191231.mb56.mif 10.3KB Metadata I?? File for each individual data file
20070727132035259_0035_20030924_180044.mb56.mif 10.3KB Metadata I?? File for each individual data file
20070727132036260_0035_20030925_155534.mb56.mif 10.3KB Metadata I?? File for each individual data file
20070727132038261_0036_20030920_135601.mb56.mif 10.3KB Metadata I?? File for each individual data file
20070727132040262_0036_20030921_174232.mb56.mif 10.3KB Metadata I?? File for each individual data file
20070727132040263_0036_20030922_154254.mb56.mif 10.3KB Metadata I?? File for each individual data file
20070727132041264_0036_20030923_192731.mb56.mif 10.3KB Metadata I?? File for each individual data file
20070727132043265_0036_20030924_181525.mb56.mif 10.3KB Metadata I?? File for each individual data file
20070727132044266_0036_20030925_161035.mb56.mif 10.3KB Metadata I?? File for each individual data file
20070727132044267_0037_20030920_141101.mb56.mif 10.3KB Metadata I?? File for each individual data file
20070727132045268_0037_20030921_175733.mb56.mif 10.3KB Metadata I?? File for each individual data file
20070727132046269_0037_20030922_155755.mb56.mif 10.3KB Metadata I?? File for each individual data file
20070727132048270_0037_20030923_193055.mb56.mif 10.3KB Metadata I?? File for each individual data file
20070727132049271_0037_20030924_182700.mb56.mif 10.3KB Metadata I?? File for each individual data file
20070727132050272_0037_20030925_162303.mb56.mif 10.3KB Metadata I?? File for each individual data file
20070727132051273_0038_20030920_142602.mb56.mif 10.3KB Metadata I?? File for each individual data file
20070727132053274_0038_20030921_181234.mb56.mif 10.3KB Metadata I?? File for each individual data file
20070727132054275_0038_20030922_161255.mb56.mif 10.3KB Metadata I?? File for each individual data file
20070727132056276_0038_20030923_194236.mb56.mif 10.3KB Metadata I?? File for each individual data file
20070727132058277_0038_20030924_184200.mb56.mif 10.3KB Metadata I?? File for each individual data file
20070727132059278_0038_20030925_163231.mb56.mif 10.3KB Metadata I?? File for each individual data file
20070727132100279_0039_20030920_144102.mb56.mif 10.3KB Metadata I?? File for each individual data file
20070727132101280_0039_20030921_182734.mb56.mif 10.3KB Metadata I?? File for each individual data file
20070727132103281_0039_20030922_162756.mb56.mif 10.3KB Metadata I?? File for each individual data file
20070727132104282_0039_20030923_195737.mb56.mif 10.3KB Metadata I?? File for each individual data file
20070727132105283_0039_20030924_185658.mb56.mif 10.3KB Metadata I?? File for each individual data file
20070727132105284_0039_20030925_164732.mb56.mif 10.3KB Metadata I?? File for each individual data file
20070727132106285_0040_20030920_145603.mb56.mif 10.3KB Metadata I?? File for each individual data file
20070727132108286_0040_20030921_183411.mb56.mif 10.3KB Metadata I?? File for each individual data file
20070727132109287_0040_20030922_164256.mb56.mif 10.3KB Metadata I?? File for each individual data file
20070727132110288_0040_20030923_201237.mb56.mif 10.3KB Metadata I?? File for each individual data file
20070727132113289_0040_20030924_190655.mb56.mif 10.3KB Metadata I?? File for each individual data file
20070727132114290_0040_20030925_170232.mb56.mif 10.3KB Metadata I?? File for each individual data file
20070727132115291_0041_20030920_150129.mb56.mif 10.3KB Metadata I?? File for each individual data file
20070727132116292_0041_20030921_184533.mb56.mif 10.3KB Metadata I?? File for each individual data file
20070727132117293_0041_20030922_165757.mb56.mif 10.3KB Metadata I?? File for each individual data file
20070727132119294_0041_20030923_202738.mb56.mif 10.3KB Metadata I?? File for each individual data file
20070727132120295_0041_20030924_192156.mb56.mif 10.3KB Metadata I?? File for each individual data file
20070727132121296_0041_20030925_170249.mb56.mif 10.3KB Metadata I?? File for each individual data file
20070727132124297_0042_20030920_151200.mb56.mif 10.3KB Metadata I?? File for each individual data file
20070727132125298_0042_20030921_190033.mb56.mif 10.3KB Metadata I?? File for each individual data file
20070727132125299_0042_20030922_171257.mb56.mif 10.3KB Metadata I?? File for each individual data file
20070727132127300_0042_20030923_204238.mb56.mif 10.3KB Metadata I?? File for each individual data file
20070727132128301_0042_20030924_193643.mb56.mif 10.3KB Metadata I?? File for each individual data file
20070727132129302_0042_20030925_170742.mb56.mif 10.3KB Metadata I?? File for each individual data file
20070727132129303_0043_20030920_152700.mb56.mif 10.3KB Metadata I?? File for each individual data file
20070727132130304_0043_20030921_191534.mb56.mif 10.3KB Metadata I?? File for each individual data file
20070727132132305_0043_20030922_172405.mb56.mif 10.3KB Metadata I?? File for each individual data file
20070727132133306_0043_20030923_205739.mb56.mif 10.3KB Metadata I?? File for each individual data file
20070727132134307_0043_20030924_194702.mb56.mif 10.3KB Metadata I?? File for each individual data file
20070727132135308_0043_20030925_170935.mb56.mif 10.3KB Metadata I?? File for each individual data file
20070727132136309_0044_20030920_154201.mb56.mif 10.3KB Metadata I?? File for each individual data file
20070727132138310_0044_20030921_193035.mb56.mif 10.3KB Metadata I?? File for each individual data file
20070727132139311_0044_20030922_173308.mb56.mif 10.3KB Metadata I?? File for each individual data file
20070727132140312_0044_20030923_211239.mb56.mif 10.3KB Metadata I?? File for each individual data file
20070727132141313_0044_20030924_200202.mb56.mif 10.3KB Metadata I?? File for each individual data file
20070727132144314_0044_20030925_171200.mb56.mif 10.3KB Metadata I?? File for each individual data file
20070727132144315_0045_20030920_155702.mb56.mif 10.3KB Metadata I?? File for each individual data file
20070727132145316_0045_20030921_194535.mb56.mif 10.3KB Metadata I?? File for each individual data file
20070727132146317_0045_20030922_174809.mb56.mif 10.3KB Metadata I?? File for each individual data file
20070727132148318_0045_20030923_211719.mb56.mif 10.3KB Metadata I?? File for each individual data file
20070727132148319_0045_20030924_201554.mb56.mif 10.3KB Metadata I?? File for each individual data file
20070727132149320_0045_20030925_171238.mb56.mif 10.3KB Metadata I?? File for each individual data file
20070727132149321_0046_20030920_161202.mb56.mif 10.3KB Metadata I?? File for each individual data file
20070727132150322_0046_20030921_200036.mb56.mif 10.3KB Metadata I?? File for each individual data file
20070727132151323_0046_20030922_180309.mb56.mif 10.3KB Metadata I?? File for each individual data file
20070727132153324_0046_20030923_211738.mb56.mif 10.3KB Metadata I?? File for each individual data file
20070727132154325_0046_20030924_202536.mb56.mif 10.3KB Metadata I?? File for each individual data file
20070727132155326_0046_20030925_171328.mb56.mif 10.3KB Metadata I?? File for each individual data file
20070727132158327_0047_20030920_162703.mb56.mif 10.3KB Metadata I?? File for each individual data file
20070727132159328_0047_20030921_201536.mb56.mif 10.3KB Metadata I?? File for each individual data file
20070727132159329_0047_20030922_181810.mb56.mif 10.3KB Metadata I?? File for each individual data file
20070727132200330_0047_20030923_212841.mb56.mif 10.3KB Metadata I?? File for each individual data file
20070727132204331_0047_20030924_204037.mb56.mif 10.3KB Metadata I?? File for each individual data file
20070727132205332_0047_20030925_172829.mb56.mif 10.3KB Metadata I?? File for each individual data file
20070727132206333_0048_20030920_164203.mb56.mif 10.3KB Metadata I?? File for each individual data file
20070727132206334_0048_20030921_201706.mb56.mif 10.3KB Metadata I?? File for each individual data file
20070727132208335_0048_20030922_183310.mb56.mif 10.3KB Metadata I?? File for each individual data file
20070727132209336_0048_20030923_214341.mb56.mif 10.3KB Metadata I?? File for each individual data file
20070727132209337_0048_20030924_205512.mb56.mif 10.3KB Metadata I?? File for each individual data file
20070727132210338_0048_20030925_173856.mb56.mif 10.3KB Metadata I?? File for each individual data file
20070727132211339_0049_20030920_164936.mb56.mif 10.3KB Metadata I?? File for each individual data file
20070727132214340_0049_20030921_202809.mb56.mif 10.3KB Metadata I?? File for each individual data file
20070727132215341_0049_20030922_184811.mb56.mif 10.3KB Metadata I?? File for each individual data file
20070727132216342_0049_20030923_215842.mb56.mif 10.3KB Metadata I?? File for each individual data file
20070727132218343_0049_20030924_210429.mb56.mif 10.3KB Metadata I?? File for each individual data file
20070727132219344_0049_20030925_175037.mb56.mif 10.3KB Metadata I?? File for each individual data file
20070727132220345_0050_20030920_165920.mb56.mif 10.3KB Metadata I?? File for each individual data file
20070727132221346_0050_20030921_204309.mb56.mif 10.3KB Metadata I?? File for each individual data file
20070727132225347_0050_20030922_190311.mb56.mif 10.3KB Metadata I?? File for each individual data file
20070727132225348_0050_20030923_221342.mb56.mif 10.3KB Metadata I?? File for each individual data file
20070727132226349_0050_20030924_211929.mb56.mif 10.3KB Metadata I?? File for each individual data file
20070727132228350_0050_20030925_180537.mb56.mif 10.3KB Metadata I?? File for each individual data file
20070727132229351_0051_20030920_171420.mb56.mif 10.3KB Metadata I?? File for each individual data file
20070727132230352_0051_20030921_205810.mb56.mif 10.3KB Metadata I?? File for each individual data file
20070727132231353_0051_20030922_191122.mb56.mif 10.3KB Metadata I?? File for each individual data file
20070727132233354_0051_20030923_222843.mb56.mif 10.3KB Metadata I?? File for each individual data file
20070727132234355_0051_20030924_213102.mb56.mif 10.3KB Metadata I?? File for each individual data file
20070727132235356_0051_20030925_182010.mb56.mif 10.3KB Metadata I?? File for each individual data file
20070727132238357_0052_20030920_172921.mb56.mif 10.3KB Metadata I?? File for each individual data file
20070727132238358_0052_20030921_211310.mb56.mif 10.3KB Metadata I?? File for each individual data file
20070727132239359_0052_20030922_192202.mb56.mif 10.3KB Metadata I?? File for each individual data file
20070727132240360_0052_20030923_224343.mb56.mif 10.3KB Metadata I?? File for each individual data file
20070727132243361_0052_20030924_214114.mb56.mif 10.3KB Metadata I?? File for each individual data file
20070727132245362_0052_20030925_182917.mb56.mif 10.3KB Metadata I?? File for each individual data file
20070727132246363_0053_20030920_174422.mb56.mif 10.3KB Metadata I?? File for each individual data file
20070727132246364_0053_20030921_212811.mb56.mif 10.3KB Metadata I?? File for each individual data file
20070727132248365_0053_20030922_193703.mb56.mif 10.3KB Metadata I?? File for each individual data file
20070727132249366_0053_20030923_225844.mb56.mif 10.3KB Metadata I?? File for each individual data file
20070727132249367_0053_20030924_215614.mb56.mif 10.3KB Metadata I?? File for each individual data file
20070727132250368_0053_20030925_184417.mb56.mif 10.3KB Metadata I?? File for each individual data file
20070727132253369_0054_20030920_174721.mb56.mif 10.3KB Metadata I?? File for each individual data file
20070727132254370_0054_20030921_214311.mb56.mif 10.3KB Metadata I?? File for each individual data file
20070727132254371_0054_20030922_195203.mb56.mif 10.3KB Metadata I?? File for each individual data file
20070727132256372_0054_20030923_225910.mb56.mif 10.3KB Metadata I?? File for each individual data file
20070727132256373_0054_20030924_220753.mb56.mif 10.3KB Metadata I?? File for each individual data file
20070727132258374_0054_20030925_185741.mb56.mif 10.3KB Metadata I?? File for each individual data file
20070727132258375_0055_20030920_180221.mb56.mif 10.3KB Metadata I?? File for each individual data file
20070727132259376_0055_20030921_215812.mb56.mif 10.3KB Metadata I?? File for each individual data file
20070727132300377_0055_20030922_200704.mb56.mif 10.3KB Metadata I?? File for each individual data file
20070727132301378_0055_20030923_230012.mb56.mif 10.3KB Metadata I?? File for each individual data file
20070727132301379_0055_20030924_221005.mb56.mif 10.3KB Metadata I?? File for each individual data file
20070727132303380_0055_20030925_190819.mb56.mif 10.3KB Metadata I?? File for each individual data file
20070727132304381_0056_20030920_181304.mb56.mif 10.3KB Metadata I?? File for each individual data file
20070727132305382_0056_20030921_215816.mb56.mif 10.3KB Metadata I?? File for each individual data file
20070727132306383_0056_20030922_202204.mb56.mif 10.3KB Metadata I?? File for each individual data file
20070727132308384_0056_20030923_230807.mb56.mif 10.3KB Metadata I?? File for each individual data file
20070727132309385_0056_20030924_222505.mb56.mif 10.3KB Metadata I?? File for each individual data file
20070727132309386_0056_20030925_192320.mb56.mif 10.3KB Metadata I?? File for each individual data file
20070727132310387_0057_20030920_182805.mb56.mif 10.3KB Metadata I?? File for each individual data file
20070727132311388_0057_20030922_203705.mb56.mif 10.3KB Metadata I?? File for each individual data file
20070727132313389_0057_20030923_232307.mb56.mif 10.3KB Metadata I?? File for each individual data file
20070727132314390_0057_20030925_193710.mb56.mif 10.3KB Metadata I?? File for each individual data file
20070727132314391_0058_20030920_183056.mb56.mif 10.3KB Metadata I?? File for each individual data file
20070727132315392_0058_20030922_205205.mb56.mif 10.3KB Metadata I?? File for each individual data file
20070727132315393_0058_20030923_233808.mb56.mif 10.3KB Metadata I?? File for each individual data file
20070727132317394_0058_20030925_194631.mb56.mif 10.3KB Metadata I?? File for each individual data file
20070727132319395_0059_20030920_184034.mb56.mif 10.3KB Metadata I?? File for each individual data file
20070727132320396_0059_20030922_205646.mb56.mif 10.3KB Metadata I?? File for each individual data file
20070727132321397_0059_20030923_235308.mb56.mif 10.3KB Metadata I?? File for each individual data file
20070727132322398_0059_20030925_200132.mb56.mif 10.3KB Metadata I?? File for each individual data file
20070727132324399_0060_20030920_185535.mb56.mif 10.3KB Metadata I?? File for each individual data file
20070727132325400_0060_20030924_000809.mb56.mif 10.3KB Metadata I?? File for each individual data file
20070727132326401_0060_20030925_201535.mb56.mif 10.3KB Metadata I?? File for each individual data file
20070727132329402_0061_20030920_191035.mb56.mif 10.3KB Metadata I?? File for each individual data file
20070727132329403_0061_20030924_002309.mb56.mif 10.3KB Metadata I?? File for each individual data file
20070727132330404_0061_20030925_202550.mb56.mif 10.3KB Metadata I?? File for each individual data file
20070727132332405_0062_20030920_192536.mb56.mif 10.3KB Metadata I?? File for each individual data file
20070727132333406_0062_20030924_003728.mb56.mif 10.3KB Metadata I?? File for each individual data file
20070727132334407_0062_20030925_204050.mb56.mif 10.3KB Metadata I?? File for each individual data file
20070727132334408_0063_20030920_194036.mb56.mif 10.3KB Metadata I?? File for each individual data file
20070727132336409_0063_20030925_205402.mb56.mif 10.3KB Metadata I?? File for each individual data file
20070727132338410_0064_20030920_195537.mb56.mif 10.3KB Metadata I?? File for each individual data file
20070727132338411_0064_20030925_210313.mb56.mif 10.3KB Metadata I?? File for each individual data file
20070727132339412_0065_20030920_201037.mb56.mif 10.3KB Metadata I?? File for each individual data file
20070727132340413_0065_20030925_211813.mb56.mif 10.3KB Metadata I?? File for each individual data file
20070727132341414_0066_20030920_201945.mb56.mif 10.3KB Metadata I?? File for each individual data file
20070727132342415_0066_20030925_213314.mb56.mif 10.3KB Metadata I?? File for each individual data file
20070727132343416_0067_20030920_202036.mb56.mif 10.3KB Metadata I?? File for each individual data file
20070727132344417_0067_20030925_213831.mb56.mif 10.3KB Metadata I?? File for each individual data file
20070727132345418_0068_20030920_202724.mb56.mif 10.3KB Metadata I?? File for each individual data file
20070727132346419_0068_20030925_214820.mb56.mif 10.3KB Metadata I?? File for each individual data file
20070727132349420_0069_20030920_204225.mb56.mif 10.3KB Metadata I?? File for each individual data file
20070727132350421_0069_20030925_220320.mb56.mif 10.3KB Metadata I?? File for each individual data file
20070727132350422_0070_20030920_205725.mb56.mif 10.3KB Metadata I?? File for each individual data file
20070727132352423_0070_20030925_221821.mb56.mif 10.3KB Metadata I?? File for each individual data file
20070727132353424_0071_20030920_211226.mb56.mif 10.3KB Metadata I?? File for each individual data file
20070727132353425_0072_20030920_212726.mb56.mif 10.3KB Metadata I?? File for each individual data file
20070727132354426_0073_20030920_214226.mb56.mif 10.3KB Metadata I?? File for each individual data file
20070727132355427_0074_20030920_215142.mb56.mif 10.3KB Metadata I?? File for each individual data file
20070727132356428_0075_20030920_215934.mb56.mif 10.3KB Metadata I?? File for each individual data file
20070727132358429_0076_20030920_221435.mb56.mif 10.3KB Metadata I?? File for each individual data file
20070727132358430_0077_20030920_222935.mb56.mif 10.3KB Metadata I?? File for each individual data file
20070727132400431_0078_20030920_224436.mb56.mif 10.3KB Metadata I?? File for each individual data file
20070727132401432_0079_20030920_225936.mb56.mif 10.3KB Metadata I?? File for each individual data file
20070727132404433_0080_20030920_231437.mb56.mif 10.3KB Metadata I?? File for each individual data file
20070727132405434_0081_20030920_232937.mb56.mif 10.3KB Metadata I?? File for each individual data file
20070727132405435_0082_20030920_233029.mb56.mif 10.3KB Metadata I?? File for each individual data file
20070727132406436_0083_20030920_233923.mb56.mif 10.3KB Metadata I?? File for each individual data file
20070727132408437_0084_20030920_235424.mb56.mif 10.3KB Metadata I?? File for each individual data file
20070727132409438_0085_20030921_000924.mb56.mif 10.3KB Metadata I?? File for each individual data file
20070727132409439_0086_20030921_001002.mb56.mif 10.3KB Metadata I?? File for each individual data file
20070727132410440_0087_20030921_002503.mb56.mif 10.3KB Metadata I?? File for each individual data file
20070727132410441_0088_20030921_004003.mb56.mif 10.3KB Metadata I?? File for each individual data file
20070727132413442_0089_20030921_005504.mb56.mif 10.3KB Metadata I?? File for each individual data file
VANC15MV_cruise_report.pdf 248.6KB PDF metadata file